Miscellaneous Local Product
Issued by NWS Hastings, NE

Home | Current Version | Previous Version | Graphics & Text | Print | Product List | Glossary On
Versions: 1 2 3 4 5 6 7 8 9 10 11 12 13 14 15 16 17 18 19 20 21 22 23 24 25 26 27 28 29 30 31 32 33 34 35 36 37 38 39 40 41 42 43 44 45 46 47 48 49 50
000
AXUS43 KGID 221502
MISGRI

GID CWA HOURLY WEATHER ROUNDUP
NATIONAL WEATHER SERVICE HASTINGS NE
1000 AM CDT FRI JUL 22 2016

NOTE: "FAIR" INDICATES FEW OR NO CLOUDS BELOW 12,000 FEET WITH NO
SIGNIFICANT WEATHER AND/OR OBSTRUCTIONS TO VISIBILITY.

...SOUTH CENTRAL NEBRASKA...

CITY           SKY/WX    TMP DP  RH WIND       PRES   REMARKS
GRAND ISLAND   SUNNY     87  77  72 N8        29.96S HX  99
HASTINGS       SUNNY     86  73  65 CALM      29.97F HX  93
KEARNEY        SUNNY     84  75  74 NE6       29.99R HX  92
ORD            SUNNY     86  77  74 NW7       29.98R HX  97
YORK           SUNNY     82  72  69 SW8       29.95S
AURORA         SUNNY     85  78  79 CALM      29.96R HX  96
LEXINGTON      SUNNY     87  76  69 NE6       30.00R HX  97
HOLDREGE       SUNNY     85  74  70 E3        29.99S HX  92
HEBRON         SUNNY     85  69  57 SW9       29.96R

...NEBRASKA PANHANDLE...

CITY           SKY/WX    TMP DP  RH WIND       PRES   REMARKS
CHADRON        PTSUNNY   83  67  58 VRB3      30.08S
ALLIANCE       CLOUDY    80  69  69 SE5       30.13S
SCOTTSBLUFF    CLOUDY    80  67  64 SE6       30.14R
SIDNEY         MOSUNNY   79  65  62 E3        30.18R

...WESTERN AND NORTH CENTRAL NEBRASKA...

CITY           SKY/WX    TMP DP  RH WIND       PRES   REMARKS
VALENTINE      SUNNY     85  72  65 VRB6      30.05S HX  91
AINSWORTH      SUNNY     83  77  82 CALM      30.05R HX  91
ONEILL         CLOUDY    81  78  90 NW6       30.00S HX  90
BROKEN BOW     SUNNY     85  77  77 N8        30.02S HX  95
IMPERIAL       SUNNY     86  71  60 NE8       30.08S HX  91
NORTH PLATTE   SUNNY     86  75  69 NE7       30.04S HX  95
MCCOOK         SUNNY     86  71  60 CALM      30.03R HX  91

...EASTERN NEBRASKA...

CITY           SKY/WX    TMP DP  RH WIND       PRES   REMARKS
NORFOLK        SUNNY     84  73  69 E7        29.94S HX  90
SO SIOUX CITY  SUNNY     87  77  72 E7        29.93R HX  99
TEKAMAH        CLOUDY    86  75  69 SE9       29.92S HX  95
COLUMBUS       SUNNY     82  70  65 CALM      29.94R
ALBION         SUNNY     86  75  68 E5        29.96S HX  94
OMAHA EPPLEY   PTSUNNY   87  73  62 S12       29.93S HX  94
OFFUTT AFB     CLOUDY    84  74  72 SE9       29.94S HX  92
MILLARD        CLOUDY    86  73  66 SE9       29.93S HX  93
LINCOLN        SUNNY     86  71  60 SW9       29.94S HX  91
NEBRASKA CITY  CLOUDY    83  75  77 S7        29.96S
BEATRICE       SUNNY     88  70  54 SW15      29.95S HX  92
FALLS CITY     CLOUDY    88  73  61 S8        29.96S HX  95

...NORTHERN KANSAS...

CITY           SKY/WX    TMP DP  RH WIND       PRES   REMARKS
GOODLAND       CLOUDY    76  60  57 W5        30.11R
HILL CITY      SUNNY     83  67  58 VRB3      29.99R
NORTON         SUNNY     84  61  45 W5        30.00R
SMITH CENTER   SUNNY     84  64  51 S3        29.97S
BELOIT         SUNNY     88  68  51 S8        29.94F HX  91
HAYS           SUNNY     90  63  40 SW12      29.98S HX  90
RUSSELL        SUNNY     88  66  48 SW14      29.97S HX  90
CONCORDIA      SUNNY     86  68  54 SW9       29.96F
SALINA         SUNNY     92  68  45 S15G22    29.97S HX  96
TOPEKA         SUNNY     89  70  53 S8        30.00R HX  94



USA.gov is the U.S. government's official web portal to all federal, state and local government web resources and services.